Showing default

KUIPER-00193, 68576

Orbit data source: Space-Track

KUIPER-00193, 68576 is a payload satellite owned by Kuiper Systems (US) in LEO that was launched on Sat, 04 Apr 2026 UTC via an ATLAS V 551 launch vehicle from the Air Force Eastern Test Range (AFETR). Payload-class satellites include a variety of spacecraft equipped with specific instruments for various scientific and technological missions. These include communications satellites like Starlink; space stations such as the ISS; scientific satellites like the Hubble; Earth observation satellites from companies like Planet Labs, Umbra, and HawkEye 360; GPS; miniature CubeSats for education and research; and military/defense satellites.

Loading next visibility...
Identifier
68576, 2026-072D
Orbit
LEO
Country
Flag of USUS
Related business
Manufacturer
Kuiper Systems
Mission
Operational spacecraft
Bus & Motor
KUIPER, Unknown motor
Mass
~490 kg wet, ~490 kg dry
Launch date (UTC)
2026-04-04 (2 months ago)
Launch vehicle
ATLAS V 551
Launch site
Air Force Eastern Test Range (AFETR)
Object type
Payload
Rocket body
Debris
Shape & HBR
Unknown shape, 3.4 m
Radar Cross Section
Large (>1 m²)

Expand to show TLE details & history
Last TLE update: 11 hours ago

TLE from 11 hours ago
0 KUIPER-00193
1 68576U 26072D   26150.16668980 -.01824928  00000-0 -10763+0 0  9999
2 68576  51.8858 264.8567 0002876 303.0117 217.6765 15.14479086  5896
Epoch: 2026-05-30T04:00Z
TLE epoch observation values (Epoch: 2026-05-30T04:00:01.998Z)
Latitude
15.11343°
Longitude
124.99797°
Altitude
524.179 km
Speed
7.603 km/s
True Right ascension
04h 50m 46s
True Declination
15° 01' 27"
Sunlit
Object was in daylight at epoch
Visualization orbit readout
Latitude
Unknown
Longitude
Unknown
Altitude
Unknown
Speed
Unknown
Apparent Right ascension
Unknown
Apparent Declination
Unknown
Sunlit
N/A
Visualization observer readout
Local Sidereal Time
00:45:12
Azimuth
Unknown
Elevation
Unknown
Doppler factor
Unknown
Orbital elements
Apogee altitude
525.006 km
Perigee altitude
521.036 km
Semi-major axis
6,901.158 km
Eccentricity
0.00029
Inclination
51.8858°
RAAN
264.8567°
Arg. of periapsis
303.0117°
True anomaly
217.65636°
Mean anomaly
217.6765°
Eccentric anomaly
217.66643°
Mean motion
3.78582 °/min
Orbital period
95.09 mins
BSTAR
-0.10763
Loading maneuver chart data...
Computing Atmospheric mass density...
Loading historical data...
Loading historical data...
Loading historical data...
Loading historical data...
Loading historical data...
Loading historical data...
Loading historical data...

Documentation

Showing up to 5 results
|